TimeMDT,TemperatureF,Dew PointF,Humidity,Sea Level PressureIn,VisibilityMPH,Wind Direction,Wind SpeedMPH,Gust SpeedMPH,PrecipitationIn,Events,Conditions,WindDirDegrees,DateUTC
12:56 AM,50.0,39.0,66,29.84,10.0,NE,8.1,-,N/A,,Partly Cloudy,40,2012-10-03 06:56:00
1:56 AM,46.0,37.9,73,29.84,10.0,NE,10.4,-,N/A,,Mostly Cloudy,50,2012-10-03 07:56:00
2:56 AM,46.9,37.9,71,29.85,10.0,NE,13.8,-,N/A,,Overcast,40,2012-10-03 08:56:00
3:56 AM,46.0,37.0,71,29.85,10.0,NE,11.5,-,0.00,,Overcast,50,2012-10-03 09:56:00
5:56 AM,42.1,34.0,73,29.87,10.0,NNE,21.9,29.9,N/A,,Clear,20,2012-10-03 11:56:00
6:44 AM,42.8,35.6,76,29.91,10.0,NNE,10.4,21.9,N/A,,Overcast,20,2012-10-03 12:44:00
6:56 AM,41.0,36.0,82,29.92,10.0,NNE,13.8,-,N/A,,Overcast,30,2012-10-03 12:56:00
7:18 AM,41.0,37.4,87,29.91,10.0,NNE,13.8,20.7,N/A,,Overcast,20,2012-10-03 13:18:00
7:36 AM,41.0,37.4,87,29.92,10.0,NNE,13.8,-,0.00,Rain,Light Rain,20,2012-10-03 13:36:00
7:56 AM,41.0,37.9,89,29.94,10.0,North,13.8,-,0.00,,Overcast,10,2012-10-03 13:56:00
8:56 AM,41.0,37.9,89,30.00,10.0,North,10.4,-,0.00,Rain,Light Rain,360,2012-10-03 14:56:00
9:56 AM,39.0,37.9,96,30.02,6.0,North,15.0,-,0.04,Rain,Light Rain,360,2012-10-03 15:56:00
10:32 AM,37.4,35.6,93,30.01,5.0,North,12.7,21.9,0.03,Rain,Rain,360,2012-10-03 16:32:00
10:45 AM,37.4,35.6,93,30.02,4.0,North,11.5,-,0.05,Rain,Heavy Rain,350,2012-10-03 16:45:00
10:56 AM,35.1,34.0,96,30.07,3.0,North,9.2,-,0.08,Rain,Rain,350,2012-10-03 16:56:00
11:09 AM,33.8,33.8,100,30.03,3.0,North,8.1,-,0.03,Rain,Rain,350,2012-10-03 17:09:00
11:36 AM,33.8,33.8,100,30.02,2.0,North,6.9,-,0.12,Rain,Rain,360,2012-10-03 17:36:00
11:43 AM,33.8,33.8,100,30.03,3.0,North,8.1,-,0.13,Rain,Rain,350,2012-10-03 17:43:00
11:46 AM,33.8,33.8,100,30.03,4.0,North,8.1,-,0.14,Rain,Rain,350,2012-10-03 17:46:00
11:56 AM,33.1,32.0,96,30.11,3.0,NW,10.4,-,0.15,Snow,Light Snow,320,2012-10-03 17:56:00
12:00 PM,33.8,32.0,93,30.06,1.8,NW,10.4,-,0.00,Snow,Light Snow,320,2012-10-03 18:00:00
12:12 PM,33.8,32.0,93,30.07,1.0,NW,10.4,-,0.02,Snow,Light Snow,310,2012-10-03 18:12:00
12:17 PM,33.8,32.0,93,30.07,0.8,NW,9.2,-,0.03,Snow,Light Snow,320,2012-10-03 18:17:00
12:26 PM,33.8,32.0,93,30.06,0.8,NNW,10.4,-,0.04,Snow,Light Snow,330,2012-10-03 18:26:00
12:40 PM,33.8,32.0,93,30.06,0.5,NNW,10.4,-,0.07,Fog-Snow,Snow,330,2012-10-03 18:40:00
12:56 PM,33.1,32.0,96,30.12,0.8,NW,11.5,-,0.10,Snow,Light Snow,320,2012-10-03 18:56:00
1:29 PM,33.8,32.0,93,30.05,1.2,North,12.7,-,0.05,Snow,Light Snow,350,2012-10-03 19:29:00
1:56 PM,33.1,32.0,96,30.13,1.2,NNW,12.7,-,0.07,Snow,Light Snow,340,2012-10-03 19:56:00
2:56 PM,33.1,32.0,96,30.14,1.2,NNW,11.5,-,0.03,Snow,Light Snow,340,2012-10-03 20:56:00
3:52 PM,33.8,32.0,93,30.12,0.8,NW,13.8,-,0.03,Snow,Light Snow,320,2012-10-03 21:52:00
3:56 PM,33.1,32.0,96,30.18,0.8,NW,11.5,-,0.04,Snow,Light Snow,320,2012-10-03 21:56:00
4:17 PM,33.8,32.0,93,30.13,0.8,NNW,12.7,-,0.01,Snow,Light Snow,330,2012-10-03 22:17:00
4:29 PM,33.8,32.0,93,30.14,1.2,NNW,12.7,-,0.02,Snow,Light Snow,330,2012-10-03 22:29:00
4:41 PM,33.8,32.0,93,30.15,3.0,NNW,11.5,-,0.02,Snow,Light Snow,330,2012-10-03 22:41:00
4:56 PM,34.0,32.0,92,30.22,3.0,NNW,13.8,-,0.02,Snow,Light Snow,330,2012-10-03 22:56:00
5:05 PM,33.8,32.0,93,30.17,2.0,NNW,12.7,-,0.00,Snow,Light Snow,330,2012-10-03 23:05:00
5:17 PM,33.8,32.0,93,30.17,1.5,NNW,11.5,-,0.00,Snow,Light Snow,330,2012-10-03 23:17:00
5:33 PM,33.8,32.0,93,30.18,2.5,NNW,13.8,-,0.01,Snow,Light Snow,330,2012-10-03 23:33:00
5:52 PM,33.8,32.0,93,30.19,1.2,NNW,11.5,-,0.01,Snow,Light Snow,330,2012-10-03 23:52:00
5:56 PM,33.1,32.0,96,30.26,1.2,NNW,12.7,-,0.02,Snow,Light Snow,330,2012-10-03 23:56:00
6:10 PM,33.8,32.0,93,30.20,3.0,NNW,10.4,-,0.00,Snow,Light Snow,330,2012-10-04 00:10:00
6:21 PM,33.8,32.0,93,30.20,2.0,NNW,10.4,-,0.00,Snow,Light Snow,330,2012-10-04 00:21:00
6:34 PM,33.8,32.0,93,30.21,4.0,NNW,11.5,-,0.01,Snow,Light Snow,340,2012-10-04 00:34:00
6:56 PM,34.0,33.1,96,30.28,9.0,NNW,9.2,-,0.01,Snow,Light Snow,330,2012-10-04 00:56:00
7:56 PM,34.0,33.1,96,30.30,7.0,NNW,12.7,-,0.01,Snow,Light Snow,330,2012-10-04 01:56:00
8:56 PM,34.0,33.1,96,30.32,5.0,NNW,10.4,-,0.02,Snow,Light Snow,330,2012-10-04 02:56:00
9:56 PM,34.0,33.1,96,30.34,7.0,NNW,13.8,-,0.01,Snow,Light Snow,330,2012-10-04 03:56:00
10:56 PM,34.0,32.0,92,30.36,7.0,NNW,12.7,-,0.00,Snow,Light Snow,340,2012-10-04 04:56:00
11:56 PM,34.0,32.0,92,30.38,7.0,NW,15.0,21.9,0.00,Snow,Light Snow,320,2012-10-04 05:56:00